Location: Mesa
(33.4220°N, 111.8220°W)
Time: 02:51:40
(UTC-07:00)

N. Korean satellite - Pass Details

Date: 17 November 2019
Orbit: 456 x 506 km, 97.2° (Epoch: 08 December)

Event Time Altitude Azimuth Distance (km) Brightness Sun altitude
Rises 18:23:56 0° 200° (SSW) 2,532 10.7 -12.7°
Reaches altitude 10° 18:26:25 10° 218° (SW) 1,667 10.1 -13.2°
Maximum altitude 18:29:01 19° 265° (W) 1,226 9.7 -13.8°
Drops below altitude 10° 18:31:40 10° 312° (NW) 1,696 9.8 -14.3°
Sets 18:34:14 0° 330° (NNW) 2,592 10.5 -14.8°
